Terminal Aerodrome Forecast
Issued by NWS Bismarck, ND

Home | Current Version | Previous Version | Graphics & Text | Print | Product List | Glossary On
Versions: 1 2 3 4 5 6 7 8 9 10 11 12 13 14 15
000
FTUS43 KBIS 121100
TAFBIS
TAF
KBIS 121135Z 1212/1312 VRB05KT P6SM BKN070
     FM121500 23009KT P6SM SCT070
     FM130100 16005KT P6SM SKC=

USA.gov is the U.S. government's official web portal to all federal, state and local government web resources and services.